Jacksonville, FL

9:35 PM EDT on August 27, 2016 (GMT -0400)
Craig Municipal

Weather History for KCRG - March, 2014

Change the Weather History Date:

Monday, March 3, 2014

  Actual Average Record
Temperature  
Mean Temperature 68 °F -  
Max Temperature 82 °F 68 °F 86 °F (2001)
Min Temperature 55 °F 49 °F 33 °F (2013)
Cooling Degree Days 4    
Growing Degree Days 18 (Base 50)    
Moisture  
Dew Point 56 °F    
Average Humidity 71    
Maximum Humidity 94    
Minimum Humidity 41    
Precipitation  
Precipitation 0.00 in - - ()
Sea Level Pressure  
Sea Level Pressure 29.99 in    
Wind  
Wind Speed 5 mph (WSW)    
Max Wind Speed 22 mph    
Max Gust Speed 32 mph    
Visibility 8 miles    
Events      
Averages and records for this station are not official NWS values.
T = Trace of Precipitation, MM = Missing Value Source: NWS Daily Summary

Daily Weather History Graph

Daily Weather History Graph

Search for Another Location

Airport or City:

Trip Planner

Search our weather history database for the weather conditions in past years. The results will help you decide how hot, cold, wet, or windy it might be!

Date:

Astronomy

Mar. 03, 2014 Rise Set
Actual Time 6:49 AM EST 6:26 PM EST
Civil Twilight 6:25 AM EST 6:50 PM EST
Nautical Twilight 5:58 AM EST 7:18 PM EST
Astronomical Twilight 5:30 AM EST 7:46 PM EST
Moon 8:10 AM EST (3/3) 9:12 PM EST (3/3)
Length of Visible Light 12h 24m
Length of Day
11h 36m
Waxing Crescent, 8% of the Moon is Illuminated
Mar 3
Waxing Crescent
Mar 8
First Quarter
Mar 16
Full
Mar 23
Last Quarter
Mar 30
New

Hourly Weather History & Observations

Time (EST) Temp. Heat Index Dew Point Humidity Pressure Visibility Wind Dir Wind Speed Gust Speed Precip Events Conditions
12:53 AM 57.0 °F - 54.0 °F 89% 30.06 in 8.0 mi Calm Calm - N/A   Clear
1:37 AM 55.9 °F - 52.0 °F 87% 30.05 in 1.8 mi Calm Calm - N/A   Clear
1:48 AM 55.4 °F - 53.6 °F 94% 30.04 in 3.0 mi Calm Calm - N/A   Clear
1:53 AM 55.9 °F - 53.1 °F 90% 30.04 in 7.0 mi Calm Calm - N/A   Clear
2:51 AM 55.4 °F - 51.8 °F 88% 30.00 in 2.0 mi Calm Calm - N/A   Clear
2:53 AM 55.9 °F - 52.0 °F 87% 30.00 in 1.8 mi Calm Calm - N/A   Clear
3:00 AM 55.9 °F - 52.0 °F 87% 30.00 in 3.0 mi Calm Calm - N/A   Clear
3:53 AM 59.0 °F - 54.0 °F 83% 30.00 in 10.0 mi WSW 4.6 mph - N/A   Clear
4:53 AM 57.9 °F - 55.9 °F 93% 30.01 in 10.0 mi SW 4.6 mph - 0.00 in   Clear
5:53 AM 57.9 °F - 54.0 °F 87% 29.98 in 10.0 mi South 4.6 mph - N/A   Clear
6:53 AM 55.9 °F - 53.1 °F 90% 30.02 in 10.0 mi Calm Calm - N/A   Clear
7:53 AM 59.0 °F - 55.0 °F 87% 30.04 in 10.0 mi SW 3.5 mph - N/A   Clear
8:53 AM 64.9 °F - 57.0 °F 75% 30.02 in 10.0 mi SSW 9.2 mph - N/A   Clear
9:53 AM 71.1 °F - 54.0 °F 55% 30.03 in 10.0 mi WSW 13.8 mph - N/A   Clear
10:53 AM 73.9 °F - 54.0 °F 50% 30.01 in 10.0 mi WSW 13.8 mph 21.9 mph N/A   Clear
11:53 AM 77.0 °F - 55.9 °F 48% 29.98 in 10.0 mi WSW 15.0 mph 26.5 mph N/A   Clear
12:53 PM 81.0 °F 81.0 °F 57.0 °F 44% 29.96 in 10.0 mi WSW 18.4 mph 24.2 mph N/A   Clear
1:53 PM 82.0 °F 81.6 °F 55.9 °F 41% 29.94 in 10.0 mi WSW 21.9 mph 32.2 mph N/A   Partly Cloudy
2:53 PM 82.0 °F 81.7 °F 57.0 °F 42% 29.92 in 10.0 mi SW 18.4 mph 26.5 mph N/A   Partly Cloudy
3:53 PM 81.0 °F 81.0 °F 57.0 °F 44% 29.91 in 10.0 mi WSW 16.1 mph 28.8 mph N/A   Clear
4:53 PM 80.1 °F 80.4 °F 57.0 °F 45% 29.92 in 10.0 mi West 18.4 mph 27.6 mph N/A   Partly Cloudy
5:53 PM 77.0 °F - 57.9 °F 52% 29.93 in 10.0 mi West 9.2 mph - N/A   Clear
6:53 PM 75.0 °F - 60.1 °F 60% 29.94 in 10.0 mi WSW 12.7 mph - N/A   Clear
7:53 PM 73.0 °F - 61.0 °F 66% 29.95 in 10.0 mi WSW 15.0 mph 24.2 mph N/A   Clear
8:53 PM 72.0 °F - 61.0 °F 68% 29.98 in 10.0 mi WSW 12.7 mph - N/A   Clear
9:53 PM 71.1 °F - 62.1 °F 73% 29.99 in 10.0 mi SW 8.1 mph - N/A   Clear
10:53 PM 71.1 °F - 62.1 °F 73% 30.00 in 10.0 mi WSW 5.8 mph - N/A   Overcast
11:48 PM 71.6 °F - 62.6 °F 73% 30.00 in 10.0 mi West 4.6 mph - N/A   Mostly Cloudy
11:53 PM 71.1 °F - 63.0 °F 75% 30.00 in 10.0 mi West 6.9 mph - N/A   Mostly Cloudy